timestamp,wind_dir_avg,wind_spd_avg,wind_spd_max_dir,wind_spd_gust,battery_voltage,lat,long
2019-11-27 00:04:01+00:00,271.0,12.55,273.0,14.51,12.65,47.59359,-54.27349
2019-11-27 00:14:01+00:00,272.0,14.56,275.0,17.52,12.57,47.59359,-54.27349
2019-11-27 00:24:01+00:00,276.0,12.81,273.0,15.38,12.57,47.59359,-54.27349
2019-11-27 00:34:01+00:00,281.0,12.94,279.0,15.46,12.57,47.59359,-54.27349
2019-11-27 00:44:01+00:00,263.0,9.06,257.0,11.17,12.57,47.59359,-54.27349
2019-11-27 00:54:01+00:00,266.0,8.9,269.0,10.11,12.57,47.59359,-54.27349
2019-11-27 01:04:01+00:00,290.0,10.89,291.0,12.36,12.57,47.59359,-54.27349
2019-11-27 01:14:01+00:00,281.0,11.79,280.0,14.66,12.57,47.59359,-54.27349
2019-11-27 01:24:01+00:00,282.0,8.7,285.0,11.04,12.57,47.59359,-54.27349
2019-11-27 01:34:01+00:00,283.0,8.63,286.0,10.02,12.57,47.59359,-54.27349
2019-11-27 01:44:01+00:00,282.0,8.47,280.0,9.51,12.57,47.59359,-54.27349
2019-11-27 01:54:01+00:00,278.0,6.88,273.0,8.28,12.57,47.59359,-54.27349
2019-11-27 02:04:01+00:00,291.0,7.47,298.0,9.0,12.57,47.59359,-54.27349
2019-11-27 02:14:01+00:00,292.0,9.99,294.0,11.41,12.57,47.59359,-54.27349
2019-11-27 02:24:01+00:00,284.0,10.4,283.0,11.43,12.57,47.59359,-54.27349
2019-11-27 02:34:01+00:00,285.0,9.37,285.0,10.67,12.57,47.59359,-54.27349
2019-11-27 02:44:01+00:00,295.0,9.63,291.0,11.14,12.57,47.59359,-54.27349
2019-11-27 02:54:01+00:00,291.0,8.89,293.0,10.22,12.57,47.59359,-54.27349
2019-11-27 03:04:01+00:00,281.0,7.42,278.0,8.74,12.57,47.59359,-54.27349
2019-11-27 03:14:01+00:00,287.0,8.25,290.0,10.87,12.57,47.59359,-54.27349
2019-11-27 03:24:01+00:00,288.0,9.14,287.0,10.72,12.57,47.59359,-54.27349
2019-11-27 03:34:01+00:00,263.0,11.75,265.0,13.38,12.57,47.59359,-54.27349
2019-11-27 03:44:01+00:00,276.0,9.51,275.0,12.47,12.57,47.59359,-54.27349
2019-11-27 03:54:01+00:00,275.0,10.88,267.0,12.5,12.57,47.59359,-54.27349
2019-11-27 04:04:01+00:00,265.0,9.1,262.0,10.08,12.57,47.59359,-54.27349
2019-11-27 04:14:01+00:00,277.0,9.57,276.0,11.07,12.57,47.59359,-54.27349
2019-11-27 04:24:01+00:00,274.0,7.08,279.0,8.26,12.57,47.59359,-54.27349
2019-11-27 04:34:01+00:00,282.0,8.35,283.0,10.32,12.57,47.59359,-54.27349
2019-11-27 04:44:01+00:00,274.0,7.92,270.0,9.18,12.57,47.59359,-54.27349
2019-11-27 04:54:01+00:00,259.0,6.79,258.0,7.95,12.57,47.59359,-54.27349
2019-11-27 05:04:01+00:00,259.0,6.44,256.0,8.45,12.57,47.59359,-54.27349
2019-11-27 05:14:01+00:00,267.0,10.91,268.0,12.46,12.49,47.59359,-54.27349
2019-11-27 05:24:01+00:00,271.0,8.87,268.0,10.19,12.49,47.59359,-54.27349
2019-11-27 05:34:01+00:00,262.0,8.13,262.0,10.12,12.49,47.59359,-54.27349
2019-11-27 05:44:01+00:00,255.0,8.36,254.0,9.63,12.49,47.59359,-54.27349
2019-11-27 05:54:01+00:00,256.0,8.24,257.0,10.46,12.49,47.59359,-54.27349
2019-11-27 06:04:01+00:00,260.0,8.96,259.0,10.11,12.49,47.59359,-54.27349
2019-11-27 06:14:01+00:00,266.0,9.43,266.0,12.16,12.49,47.59359,-54.27349
2019-11-27 06:24:01+00:00,265.0,10.35,267.0,12.47,12.49,47.59359,-54.27349
2019-11-27 06:34:01+00:00,261.0,9.53,273.0,10.5,12.49,47.59359,-54.27349
2019-11-27 06:44:01+00:00,250.0,8.85,249.0,10.39,12.49,47.59359,-54.27349
2019-11-27 06:54:01+00:00,260.0,8.2,262.0,9.7,12.49,47.59359,-54.27349
2019-11-27 07:04:01+00:00,258.0,8.06,262.0,9.17,12.49,47.59359,-54.27349
2019-11-27 07:14:01+00:00,257.0,9.1,267.0,10.5,12.49,47.59359,-54.27349
2019-11-27 07:24:01+00:00,262.0,9.91,265.0,10.91,12.49,47.59359,-54.27349
2019-11-27 07:34:01+00:00,271.0,8.9,274.0,10.28,12.49,47.59359,-54.27349
2019-11-27 07:44:01+00:00,255.0,8.75,260.0,10.13,12.49,47.59359,-54.27349
2019-11-27 07:54:01+00:00,254.0,7.85,255.0,10.39,12.49,47.59359,-54.27349
2019-11-27 08:04:01+00:00,254.0,7.66,260.0,8.84,12.49,47.59359,-54.27349
2019-11-27 08:14:01+00:00,269.0,7.7,276.0,9.25,12.49,47.59359,-54.27349
2019-11-27 08:24:01+00:00,266.0,9.57,253.0,12.36,12.49,47.59359,-54.27349
2019-11-27 08:34:01+00:00,279.0,9.77,275.0,11.59,12.49,47.59359,-54.27349
2019-11-27 08:44:01+00:00,274.0,8.55,279.0,10.36,12.49,47.59359,-54.27349
2019-11-27 08:54:01+00:00,281.0,8.4,285.0,10.65,12.49,47.59359,-54.27349
2019-11-27 09:04:01+00:00,269.0,8.11,268.0,9.79,12.49,47.59359,-54.27349
2019-11-27 09:14:01+00:00,270.0,7.91,275.0,9.43,12.49,47.59359,-54.27349
2019-11-27 09:24:01+00:00,268.0,8.11,270.0,9.38,12.49,47.59359,-54.27349
2019-11-27 09:34:01+00:00,256.0,8.86,259.0,10.15,12.49,47.59359,-54.27349
2019-11-27 09:44:01+00:00,262.0,8.5,268.0,9.8,12.49,47.59359,-54.27349
2019-11-27 09:54:01+00:00,268.0,9.07,277.0,10.37,12.49,47.59359,-54.27349
2019-11-27 10:04:01+00:00,267.0,8.29,260.0,9.58,12.49,47.59359,-54.27349
2019-11-27 10:14:01+00:00,265.0,7.04,264.0,7.8,12.49,47.59359,-54.27349
2019-11-27 10:24:01+00:00,262.0,6.76,265.0,7.55,12.49,47.59359,-54.27349
2019-11-27 10:34:01+00:00,260.0,7.3,259.0,8.44,12.49,47.59359,-54.27349
2019-11-27 10:44:01+00:00,257.0,6.94,256.0,7.82,12.49,47.59359,-54.27349
2019-11-27 10:54:01+00:00,255.0,8.86,254.0,9.8,12.49,47.59359,-54.27349
2019-11-27 11:04:01+00:00,263.0,7.65,265.0,8.89,12.49,47.59359,-54.27349
2019-11-27 11:14:01+00:00,262.0,8.61,259.0,10.24,12.49,47.59359,-54.27349
2019-11-27 11:24:01+00:00,272.0,7.8,274.0,8.28,12.49,47.59359,-54.27349
2019-11-27 11:34:01+00:00,267.0,7.29,271.0,8.16,12.49,47.59359,-54.27349
2019-11-27 11:44:01+00:00,261.0,8.21,261.0,9.31,12.49,47.59359,-54.27349
2019-11-27 11:54:01+00:00,256.0,8.48,257.0,9.48,12.49,47.59359,-54.27349
2019-11-27 12:04:01+00:00,264.0,7.67,261.0,8.7,12.49,47.59359,-54.27349
2019-11-27 12:14:01+00:00,264.0,8.26,265.0,9.18,12.41,47.59359,-54.27349
2019-11-27 12:24:01+00:00,270.0,8.23,273.0,8.89,12.41,47.59359,-54.27349
2019-11-27 12:34:01+00:00,269.0,9.72,269.0,10.8,12.41,47.59359,-54.27349
2019-11-27 12:44:01+00:00,275.0,9.07,275.0,10.45,12.41,47.59359,-54.27349
2019-11-27 12:54:01+00:00,265.0,7.51,270.0,8.92,12.41,47.59359,-54.27349
2019-11-27 13:04:01+00:00,268.0,6.66,266.0,7.92,12.41,47.59359,-54.27349
2019-11-27 13:14:01+00:00,272.0,7.41,272.0,8.35,12.97,47.59359,-54.27349
2019-11-27 13:24:01+00:00,283.0,7.83,282.0,9.17,12.97,47.59359,-54.27349
2019-11-27 13:34:01+00:00,295.0,8.92,298.0,11.2,12.97,47.59359,-54.27349
2019-11-27 13:44:01+00:00,294.0,7.39,292.0,8.41,12.97,47.59359,-54.27349
2019-11-27 13:54:01+00:00,300.0,7.25,302.0,8.75,12.97,47.59359,-54.27349
2019-11-27 14:04:01+00:00,303.0,6.75,306.0,8.19,12.97,47.59359,-54.27349
2019-11-27 14:14:01+00:00,301.0,5.33,292.0,7.7,12.97,47.59359,-54.27349
2019-11-27 14:24:01+00:00,297.0,6.79,295.0,8.04,12.97,47.59359,-54.27349
2019-11-27 14:34:01+00:00,315.0,5.64,316.0,6.62,12.97,47.59359,-54.27349
2019-11-27 14:44:01+00:00,304.0,6.15,293.0,7.77,12.97,47.59359,-54.27349
2019-11-27 14:54:01+00:00,325.0,6.99,323.0,7.94,12.97,47.59359,-54.27349
2019-11-27 15:04:01+00:00,328.0,6.56,330.0,7.3,12.97,47.59359,-54.27349
2019-11-27 15:14:01+00:00,325.0,5.9,320.0,6.78,13.44,47.59359,-54.27349
2019-11-27 15:24:01+00:00,314.0,5.99,315.0,7.2,13.44,47.59359,-54.27349
2019-11-27 15:34:01+00:00,305.0,6.76,305.0,7.77,13.44,47.59359,-54.27349
2019-11-27 15:44:01+00:00,312.0,5.27,315.0,6.35,13.44,47.59359,-54.27349
2019-11-27 15:54:01+00:00,286.0,4.58,294.0,5.13,13.44,47.59359,-54.27349
2019-11-27 16:04:01+00:00,302.0,8.33,304.0,9.69,13.44,47.59359,-54.27349
2019-11-27 16:14:01+00:00,308.0,7.48,307.0,8.59,13.6,47.59359,-54.27349
2019-11-27 16:24:01+00:00,297.0,7.8,294.0,8.79,13.6,47.59359,-54.27349
2019-11-27 16:34:01+00:00,308.0,9.17,315.0,10.59,13.6,47.59359,-54.27349
2019-11-27 16:44:01+00:00,317.0,8.14,318.0,9.76,13.6,47.59359,-54.27349
2019-11-27 16:54:01+00:00,297.0,8.85,295.0,9.82,13.6,47.59359,-54.27349
2019-11-27 17:04:01+00:00,293.0,8.8,291.0,10.12,13.6,47.59359,-54.27349
2019-11-27 17:14:01+00:00,305.0,6.34,302.0,7.94,13.68,47.59359,-54.27349
2019-11-27 17:24:01+00:00,303.0,8.82,304.0,10.24,13.68,47.59359,-54.27349
2019-11-27 17:34:01+00:00,292.0,9.67,292.0,10.74,13.68,47.59359,-54.27349
2019-11-27 17:44:01+00:00,293.0,8.96,296.0,10.5,13.68,47.59359,-54.27349
2019-11-27 17:54:01+00:00,285.0,8.43,279.0,9.65,13.68,47.59359,-54.27349
2019-11-27 18:04:01+00:00,296.0,7.7,288.0,9.02,13.68,47.59359,-54.27349
2019-11-27 18:14:01+00:00,322.0,9.43,319.0,11.19,13.53,47.59359,-54.27349
2019-11-27 18:24:01+00:00,298.0,7.71,293.0,8.79,13.53,47.59359,-54.27349
2019-11-27 18:34:01+00:00,315.0,9.44,308.0,11.25,13.53,47.59359,-54.27349
2019-11-27 18:44:01+00:00,306.0,9.7,310.0,11.3,13.53,47.59359,-54.27349
2019-11-27 18:54:01+00:00,300.0,10.86,308.0,12.63,13.53,47.59359,-54.27349
2019-11-27 19:04:01+00:00,306.0,10.25,304.0,11.59,13.53,47.59359,-54.27349
2019-11-27 19:14:01+00:00,287.0,9.62,281.0,11.62,13.05,47.59359,-54.27349
2019-11-27 19:24:01+00:00,292.0,8.6,291.0,11.11,13.05,47.59359,-54.27349
2019-11-27 19:34:01+00:00,303.0,8.78,303.0,10.21,13.05,47.59359,-54.27349
2019-11-27 19:44:01+00:00,303.0,8.53,301.0,10.21,13.05,47.59359,-54.27349
2019-11-27 19:54:01+00:00,296.0,7.45,288.0,9.05,13.05,47.59359,-54.27349
2019-11-27 20:04:01+00:00,303.0,7.34,303.0,8.09,13.05,47.59359,-54.27349
2019-11-27 20:14:01+00:00,299.0,7.88,295.0,9.43,12.73,47.59359,-54.27349
2019-11-27 20:24:01+00:00,296.0,7.8,293.0,8.71,12.73,47.59359,-54.27349
2019-11-27 20:34:01+00:00,306.0,7.26,306.0,8.06,12.73,47.59359,-54.27349
2019-11-27 20:44:01+00:00,309.0,7.34,303.0,8.33,12.73,47.59359,-54.27349
2019-11-27 20:54:01+00:00,307.0,7.77,308.0,8.59,12.73,47.59359,-54.27349
2019-11-27 21:04:01+00:00,303.0,8.01,295.0,10.05,12.73,47.59359,-54.27349
2019-11-27 21:14:01+00:00,298.0,8.32,308.0,10.23,12.65,47.59359,-54.27349
2019-11-27 21:24:01+00:00,299.0,7.4,300.0,8.87,12.65,47.59359,-54.27349
2019-11-27 21:34:01+00:00,300.0,6.77,295.0,8.21,12.65,47.59359,-54.27349
2019-11-27 21:44:01+00:00,298.0,6.04,280.0,6.98,12.65,47.59359,-54.27349
2019-11-27 21:54:01+00:00,308.0,8.24,306.0,9.75,12.65,47.59359,-54.27349
2019-11-27 22:04:01+00:00,315.0,6.98,323.0,8.29,12.65,47.59359,-54.27349
2019-11-27 22:14:01+00:00,308.0,7.23,306.0,8.33,12.65,47.59359,-54.27349
2019-11-27 22:24:01+00:00,311.0,7.78,309.0,8.81,12.65,47.59359,-54.27349
2019-11-27 22:34:01+00:00,303.0,8.58,301.0,9.7,12.65,47.59359,-54.27349
2019-11-27 22:44:01+00:00,302.0,9.59,304.0,11.39,12.65,47.59359,-54.27349
2019-11-27 22:54:01+00:00,303.0,8.74,303.0,9.62,12.65,47.59359,-54.27349
2019-11-27 23:04:01+00:00,301.0,9.19,301.0,10.79,12.65,47.59359,-54.27349
2019-11-27 23:14:01+00:00,304.0,9.04,302.0,10.81,12.57,47.59359,-54.27349
2019-11-27 23:24:01+00:00,299.0,8.31,306.0,9.75,12.57,47.59359,-54.27349
2019-11-27 23:34:01+00:00,314.0,9.17,310.0,10.68,12.57,47.59359,-54.27349
2019-11-27 23:44:01+00:00,314.0,8.38,334.0,11.06,12.57,47.59359,-54.27349
2019-11-27 23:54:01+00:00,320.0,7.82,317.0,9.13,12.57,47.59359,-54.27349
